Time,TemperatureF,DewpointF,PressureIn,WindDirection,WindDirectionDegrees,WindSpeedMPH,WindSpeedGustMPH,Humidity,HourlyPrecipIn,Conditions,Clouds,dailyrainin,SoftwareType,DateUTC
2013-08-14 00:08:00,66.9,66.3,29.70,West,270,0.0,-999.0,98,-99.99,,,0.00,Acu-Link.com,2013-08-14 04:08:00,
2013-08-14 00:23:00,66.9,66.3,29.69,West,270,0.0,-999.0,98,-99.99,,,0.00,Acu-Link.com,2013-08-14 04:23:00,
2013-08-14 00:39:00,66.9,66.3,29.69,West,270,0.0,-999.0,98,-99.99,,,0.00,Acu-Link.com,2013-08-14 04:39:00,
2013-08-14 00:54:00,66.2,65.6,29.69,WNW,292,0.0,-999.0,98,-99.99,,,0.00,Acu-Link.com,2013-08-14 04:54:00,
2013-08-14 01:09:00,65.8,65.3,29.70,West,270,2.2,-999.0,98,-99.99,,,0.00,Acu-Link.com,2013-08-14 05:09:00,
2013-08-14 01:24:00,64.9,64.4,29.70,SW,225,0.0,-999.0,98,-99.99,,,0.00,Acu-Link.com,2013-08-14 05:24:00,
2013-08-14 01:39:00,64.4,63.8,29.69,WSW,247,0.0,-999.0,98,-99.99,,,0.00,Acu-Link.com,2013-08-14 05:39:00,
2013-08-14 01:55:00,64.0,63.5,29.69,West,270,2.7,-999.0,98,-99.99,,,0.00,Acu-Link.com,2013-08-14 05:55:00,
2013-08-14 02:10:00,63.9,63.3,29.70,South,180,0.0,-999.0,98,-99.99,,,0.00,Acu-Link.com,2013-08-14 06:10:00,
2013-08-14 02:25:00,63.5,62.9,29.70,SSE,157,0.0,-999.0,98,-99.99,,,0.00,Acu-Link.com,2013-08-14 06:25:00,
2013-08-14 02:40:00,63.0,62.4,29.70,SW,225,0.0,-999.0,98,-99.99,,,0.00,Acu-Link.com,2013-08-14 06:40:00,
2013-08-14 02:55:00,62.6,62.0,29.70,SW,225,0.0,-999.0,98,-99.99,,,0.00,Acu-Link.com,2013-08-14 06:55:00,
2013-08-14 03:11:00,62.1,61.5,29.71,SW,225,0.0,-999.0,98,-99.99,,,0.00,Acu-Link.com,2013-08-14 07:11:00,
2013-08-14 03:26:00,61.7,61.1,29.70,ESE,112,0.0,-999.0,98,-99.99,,,0.00,Acu-Link.com,2013-08-14 07:26:00,
2013-08-14 03:41:00,61.2,60.6,29.71,ESE,112,0.0,-999.0,98,-99.99,,,0.00,Acu-Link.com,2013-08-14 07:41:00,
2013-08-14 03:56:00,60.8,60.2,29.71,West,270,0.0,-999.0,98,-99.99,,,0.00,Acu-Link.com,2013-08-14 07:56:00,
2013-08-14 04:12:00,60.4,59.9,29.72,SSE,157,0.0,-999.0,98,-99.99,,,0.00,Acu-Link.com,2013-08-14 08:12:00,
2013-08-14 04:27:00,60.4,59.9,29.72,SW,225,0.0,-999.0,98,-99.99,,,0.00,Acu-Link.com,2013-08-14 08:27:00,
2013-08-14 04:42:00,59.7,59.2,29.72,ESE,112,0.0,-999.0,98,-99.99,,,0.00,Acu-Link.com,2013-08-14 08:42:00,
2013-08-14 04:57:00,58.8,58.3,29.72,SW,225,0.0,-999.0,98,-99.99,,,0.00,Acu-Link.com,2013-08-14 08:57:00,
2013-08-14 05:12:00,58.6,58.1,29.73,SSE,157,0.0,-999.0,98,-99.99,,,0.00,Acu-Link.com,2013-08-14 09:12:00,
2013-08-14 05:27:00,57.6,57.0,29.73,SSE,157,0.0,-999.0,98,-99.99,,,0.00,Acu-Link.com,2013-08-14 09:27:00,
2013-08-14 05:43:00,57.0,56.5,29.74,South,180,0.0,-999.0,98,-99.99,,,0.00,Acu-Link.com,2013-08-14 09:43:00,
2013-08-14 05:58:00,56.7,56.1,29.75,SW,225,0.0,-999.0,98,-99.99,,,0.00,Acu-Link.com,2013-08-14 09:58:00,
2013-08-14 06:13:00,56.1,55.6,29.75,SW,225,0.0,-999.0,98,-99.99,,,0.00,Acu-Link.com,2013-08-14 10:13:00,
2013-08-14 06:28:00,55.6,55.0,29.76,WSW,247,0.0,-999.0,98,-99.99,,,0.00,Acu-Link.com,2013-08-14 10:28:00,
2013-08-14 06:44:00,55.4,54.8,29.77,South,180,0.0,-999.0,98,-99.99,,,0.00,Acu-Link.com,2013-08-14 10:44:00,
2013-08-14 06:59:00,55.8,55.2,29.77,SSW,202,0.0,-999.0,98,-99.99,,,0.00,Acu-Link.com,2013-08-14 10:59:00,
2013-08-14 07:14:00,56.3,55.7,29.77,West,270,0.0,-999.0,98,-99.99,,,0.00,Acu-Link.com,2013-08-14 11:14:00,
2013-08-14 07:29:00,56.8,56.3,29.78,West,270,0.0,-999.0,98,-99.99,,,0.00,Acu-Link.com,2013-08-14 11:29:00,
2013-08-14 07:44:00,57.6,57.0,29.78,South,180,0.0,-999.0,98,-99.99,,,0.00,Acu-Link.com,2013-08-14 11:44:00,
2013-08-14 08:00:00,58.8,58.3,29.78,SW,225,0.0,-999.0,98,-99.99,,,0.00,Acu-Link.com,2013-08-14 12:00:00,
2013-08-14 08:15:00,59.9,59.3,29.78,SE,135,0.0,-999.0,98,-99.99,,,0.00,Acu-Link.com,2013-08-14 12:15:00,
2013-08-14 08:30:00,60.6,60.1,29.78,WSW,247,0.0,-999.0,98,-99.99,,,0.00,Acu-Link.com,2013-08-14 12:30:00,
2013-08-14 08:45:00,61.3,60.8,29.79,ESE,112,0.0,-999.0,98,-99.99,,,0.00,Acu-Link.com,2013-08-14 12:45:00,
2013-08-14 09:00:00,62.2,61.7,29.79,ENE,67,2.2,-999.0,98,-99.99,,,0.00,Acu-Link.com,2013-08-14 13:00:00,
2013-08-14 09:16:00,63.0,62.4,29.79,NNE,22,0.0,-999.0,98,-99.99,,,0.00,Acu-Link.com,2013-08-14 13:16:00,
2013-08-14 09:31:00,63.5,62.9,29.78,NW,315,6.3,-999.0,98,-99.99,,,0.00,Acu-Link.com,2013-08-14 13:31:00,
2013-08-14 09:46:00,64.2,63.6,29.78,West,270,1.6,-999.0,98,-99.99,,,0.00,Acu-Link.com,2013-08-14 13:46:00,
2013-08-14 10:01:00,65.5,64.9,29.79,South,180,2.2,-999.0,98,-99.99,,,0.00,Acu-Link.com,2013-08-14 14:01:00,
2013-08-14 10:17:00,66.6,66.0,29.79,West,270,1.1,-999.0,98,-99.99,,,0.00,Acu-Link.com,2013-08-14 14:17:00,
2013-08-14 10:32:00,66.9,66.3,29.80,SW,225,2.2,-999.0,98,-99.99,,,0.00,Acu-Link.com,2013-08-14 14:32:00,
2013-08-14 10:47:00,67.5,66.9,29.80,WSW,247,7.4,-999.0,98,-99.99,,,0.00,Acu-Link.com,2013-08-14 14:47:00,
2013-08-14 11:02:00,67.6,67.1,29.80,SW,225,2.7,-999.0,98,-99.99,,,0.00,Acu-Link.com,2013-08-14 15:02:00,
2013-08-14 11:17:00,68.0,67.4,29.80,West,270,1.1,-999.0,98,-99.99,,,0.00,Acu-Link.com,2013-08-14 15:17:00,
2013-08-14 11:33:00,68.2,67.6,29.80,West,270,3.1,-999.0,98,-99.99,,,0.00,Acu-Link.com,2013-08-14 15:33:00,
2013-08-14 11:48:00,68.7,68.1,29.80,ESE,112,2.7,-999.0,98,-99.99,,,0.00,Acu-Link.com,2013-08-14 15:48:00,
2013-08-14 12:03:00,69.3,68.7,29.80,East,90,1.6,-999.0,98,-99.99,,,0.00,Acu-Link.com,2013-08-14 16:03:00,
2013-08-14 12:18:00,70.0,69.4,29.80,SSW,202,0.0,-999.0,98,-99.99,,,0.00,Acu-Link.com,2013-08-14 16:18:00,
2013-08-14 12:33:00,70.5,69.9,29.80,SW,225,2.7,-999.0,98,-99.99,,,0.00,Acu-Link.com,2013-08-14 16:33:00,
2013-08-14 12:49:00,71.4,70.8,29.80,SSW,202,0.0,-999.0,98,-99.99,,,0.00,Acu-Link.com,2013-08-14 16:49:00,
2013-08-14 13:04:00,71.2,70.6,29.80,WNW,292,3.8,-999.0,98,-99.99,,,0.00,Acu-Link.com,2013-08-14 17:04:00,
2013-08-14 13:19:00,70.7,70.1,29.81,WNW,292,3.8,-999.0,98,-99.99,,,0.00,Acu-Link.com,2013-08-14 17:19:00,
2013-08-14 13:34:00,70.2,69.6,29.81,SW,225,2.7,-999.0,98,-99.99,,,0.00,Acu-Link.com,2013-08-14 17:34:00,
2013-08-14 13:50:00,70.3,69.7,29.81,SW,225,3.8,-999.0,98,-99.99,,,0.00,Acu-Link.com,2013-08-14 17:50:00,
2013-08-14 14:05:00,71.8,71.2,29.81,WNW,292,4.3,-999.0,98,-99.99,,,0.00,Acu-Link.com,2013-08-14 18:05:00,
2013-08-14 14:20:00,72.3,71.7,29.82,NW,315,2.7,-999.0,98,-99.99,,,0.00,Acu-Link.com,2013-08-14 18:20:00,
2013-08-14 14:35:00,71.8,71.2,29.82,West,270,3.1,-999.0,98,-99.99,,,0.00,Acu-Link.com,2013-08-14 18:35:00,
2013-08-14 14:50:00,71.4,70.8,29.82,NW,315,0.0,-999.0,98,-99.99,,,0.00,Acu-Link.com,2013-08-14 18:50:00,
2013-08-14 15:06:00,72.5,71.9,29.80,West,270,2.7,-999.0,98,-99.99,,,0.00,Acu-Link.com,2013-08-14 19:06:00,
2013-08-14 15:21:00,72.7,72.1,29.80,NNW,337,4.3,-999.0,98,-99.99,,,0.00,Acu-Link.com,2013-08-14 19:21:00,
2013-08-14 15:36:00,72.9,72.3,29.80,West,270,7.4,-999.0,98,-99.99,,,0.00,Acu-Link.com,2013-08-14 19:36:00,
2013-08-14 15:51:00,73.0,72.4,29.80,WNW,292,3.8,-999.0,98,-99.99,,,0.00,Acu-Link.com,2013-08-14 19:51:00,
2013-08-14 16:06:00,72.9,72.3,29.82,SSW,202,3.1,-999.0,98,-99.99,,,0.13,Acu-Link.com,2013-08-14 20:06:00,
2013-08-14 16:22:00,72.5,71.9,29.81,SSW,202,1.6,-999.0,98,-99.99,,,0.13,Acu-Link.com,2013-08-14 20:22:00,
2013-08-14 16:37:00,72.1,71.5,29.81,WNW,292,5.1,-999.0,98,-99.99,,,0.13,Acu-Link.com,2013-08-14 20:37:00,
2013-08-14 16:52:00,73.8,73.2,29.81,West,270,2.7,-999.0,98,-99.99,,,0.13,Acu-Link.com,2013-08-14 20:52:00,
2013-08-14 17:07:00,73.4,72.8,29.82,West,270,0.0,-999.0,98,-99.99,,,0.13,Acu-Link.com,2013-08-14 21:07:00,
2013-08-14 17:23:00,73.4,72.8,29.83,East,90,7.4,-999.0,98,-99.99,,,0.13,Acu-Link.com,2013-08-14 21:23:00,
2013-08-14 17:38:00,72.9,72.3,29.83,West,270,8.3,-999.0,98,-99.99,,,0.13,Acu-Link.com,2013-08-14 21:38:00,
2013-08-14 17:53:00,72.1,71.5,29.84,East,90,4.7,-999.0,98,-99.99,,,0.13,Acu-Link.com,2013-08-14 21:53:00,
2013-08-14 18:08:00,72.0,71.4,29.84,West,270,1.6,-999.0,98,-99.99,,,0.13,Acu-Link.com,2013-08-14 22:08:00,
2013-08-14 18:23:00,71.8,71.2,29.84,ENE,67,2.2,-999.0,98,-99.99,,,0.13,Acu-Link.com,2013-08-14 22:23:00,
2013-08-14 18:39:00,71.4,70.8,29.84,SW,225,6.3,-999.0,98,-99.99,,,0.13,Acu-Link.com,2013-08-14 22:39:00,
2013-08-14 18:54:00,70.9,70.3,29.85,North,0,2.2,-999.0,98,-99.99,,,0.13,Acu-Link.com,2013-08-14 22:54:00,
2013-08-14 19:09:00,70.5,69.9,29.85,SSW,202,0.0,-999.0,98,-99.99,,,0.13,Acu-Link.com,2013-08-14 23:09:00,
2013-08-14 19:24:00,70.0,69.4,29.86,SW,225,0.0,-999.0,98,-99.99,,,0.13,Acu-Link.com,2013-08-14 23:24:00,
2013-08-14 19:39:00,69.4,68.8,29.87,West,270,0.0,-999.0,98,-99.99,,,0.13,Acu-Link.com,2013-08-14 23:39:00,
2013-08-14 19:55:00,68.7,68.1,29.88,SSW,202,0.0,-999.0,98,-99.99,,,0.13,Acu-Link.com,2013-08-14 23:55:00,
2013-08-14 20:10:00,68.0,67.4,29.89,West,270,0.0,-999.0,98,-99.99,,,0.13,Acu-Link.com,2013-08-15 00:10:00,
2013-08-14 20:25:00,67.3,66.7,29.89,SW,225,0.0,-999.0,98,-99.99,,,0.13,Acu-Link.com,2013-08-15 00:25:00,
2013-08-14 20:40:00,66.7,66.2,29.91,West,270,0.0,-999.0,98,-99.99,,,0.13,Acu-Link.com,2013-08-15 00:40:00,
2013-08-14 20:55:00,66.4,65.8,29.91,WSW,247,0.0,-999.0,98,-99.99,,,0.13,Acu-Link.com,2013-08-15 00:55:00,
2013-08-14 21:11:00,65.8,65.3,29.92,ESE,112,0.0,-999.0,98,-99.99,,,0.13,Acu-Link.com,2013-08-15 01:11:00,
2013-08-14 21:26:00,65.7,65.1,29.93,WSW,247,0.0,-999.0,98,-99.99,,,0.13,Acu-Link.com,2013-08-15 01:26:00,
2013-08-14 21:41:00,64.9,64.4,29.94,SW,225,0.0,-999.0,98,-99.99,,,0.13,Acu-Link.com,2013-08-15 01:41:00,
2013-08-14 21:56:00,64.4,63.8,29.94,SW,225,0.0,-999.0,98,-99.99,,,0.13,Acu-Link.com,2013-08-15 01:56:00,
2013-08-14 22:11:00,63.5,62.9,29.95,SW,225,0.0,-999.0,98,-99.99,,,0.13,Acu-Link.com,2013-08-15 02:11:00,
2013-08-14 22:26:00,63.3,62.7,29.95,SW,225,0.0,-999.0,98,-99.99,,,0.13,Acu-Link.com,2013-08-15 02:26:00,
2013-08-14 22:42:00,62.6,62.0,29.96,SSW,202,0.0,-999.0,98,-99.99,,,0.13,Acu-Link.com,2013-08-15 02:42:00,
2013-08-14 22:57:00,62.1,61.5,29.97,South,180,0.0,-999.0,98,-99.99,,,0.13,Acu-Link.com,2013-08-15 02:57:00,
2013-08-14 23:12:00,61.3,60.8,29.97,SSE,157,0.0,-999.0,98,-99.99,,,0.13,Acu-Link.com,2013-08-15 03:12:00,
2013-08-14 23:27:00,60.4,59.9,29.97,WSW,247,0.0,-999.0,98,-99.99,,,0.13,Acu-Link.com,2013-08-15 03:27:00,
2013-08-14 23:42:00,60.1,59.5,29.98,SSE,157,0.0,-999.0,98,-99.99,,,0.13,Acu-Link.com,2013-08-15 03:42:00,
2013-08-14 23:58:00,59.4,58.8,29.99,WSW,247,0.0,-999.0,98,-99.99,,,0.13,Acu-Link.com,2013-08-15 03:58:00,